QPF
0.00 0.00 0.00 0.00 0.00 0.00 0.00 0.00 0.00 0.00 0.00 0.00 0.00 0.00 0.00 0.00 0.00 0.00 0.00 0.00 0.00 0.00 0.00 0.00 0.00 0.00 0.00 0.00 0.01 0.02 0.09 0.14 0.10 0.07 0.08 0.05 0.03 0.01 0.01 0.01 0.00 0.00 0.00 0.00
0.02 0.00 0.00 0.00 0.00 0.00 0.00 0.00 0.00 0.00 0.00 0.00 0.00 0.00 0.00 0.00 0.00 0.00 0.00 0.00 0.00 0.00 0.00 0.00 0.00 0.00 0.00 0.00 0.02 0.03 0.11 0.07 0.12 0.13 0.09 0.08 0.05 0.00 0.01 0.00 0.00 0.00 0.01 0.02
0.01 0.00 0.00 0.00 0.00 0.00 0.00 0.00 0.00 0.00 0.00 0.00 0.00 0.00 0.00 0.00 0.00 0.00 0.00 0.00 0.00 0.00 0.00 0.00 0.00 0.00 0.01 0.06 0.12 0.14 0.09 0.22 0.27 0.18 0.06 0.16 0.07 0.01 0.00 0.01 0.00 0.00 0.00 0.00
0.00 0.00 0.00 0.00 0.00 0.00 0.00 0.00 0.00 0.00 0.00 0.00 0.00 0.00 0.00 0.00 0.00 0.00 0.00 0.00 0.00 0.00 0.00 0.00 0.00 0.00 0.04 0.10 0.14 0.19 0.09 0.06 0.15 0.16 0.04 0.02 0.02 0.01 0.00 0.00 0.00 0.00 0.00 0.00
0.01 0.01 0.02 0.01 0.00 0.00 0.00 0.00 0.00 0.00 0.00 0.00 0.00 0.00 0.00 0.00 0.00 0.00 0.00 0.00 0.00 0.00 0.00 0.00 0.00 0.00 0.01 0.05 0.06 0.07 0.11 0.20 0.18 0.13 0.04 0.02 0.01 0.06 0.05 0.01 0.00 0.00 0.00 0.00
0.00 0.00 0.01 0.01 0.00 0.00 0.00 0.00 0.00 0.00 0.00 0.00 0.00 0.00 0.00 0.00 0.00 0.00 0.00 0.00 0.00 0.00 0.00 0.00 0.00 0.00 0.00 0.01 0.04 0.05 0.02 0.05 0.15 0.11 0.11 0.10 0.05 0.12 0.07 0.01 0.00 0.00 0.00 0.00
0.00 0.00 0.00 0.00 0.00 0.00 0.00 0.00 0.00 0.00 0.00 0.00 0.00 0.00 0.00 0.00 0.00 0.00 0.00 0.00 0.00 0.00 0.00 0.00 0.00 0.00 0.00 0.00 0.00 0.00 0.01 0.04 0.10 0.09 0.05 0.07 0.14 0.11 0.04 0.00 0.01 0.00 0.00 0.00
0.01 0.01 0.01 0.00 0.00 0.00 0.00 0.00 0.00 0.00 0.00 0.00 0.00 0.00 0.00 0.00 0.00 0.00 0.00 0.00 0.00 0.00 0.00 0.00 0.00 0.00 0.00 0.00 0.02 0.00 0.00 0.01 0.03 0.03 0.02 0.11 0.12 0.07 0.00 0.00 0.00 0.00 0.00 0.00
0.04 0.02 0.01 0.00 0.00 0.01 0.02 0.00 0.00 0.00 0.00 0.00 0.00 0.00 0.00 0.00 0.00 0.00 0.00 0.00 0.00 0.00 0.00 0.00 0.00 0.00 0.00 0.00 0.01 0.01 0.02 0.00 0.00 0.01 0.01 0.03 0.05 0.03 0.02 0.00 0.00 0.00 0.00 0.00
0.01 0.01 0.02 0.01 0.00 0.00 0.00 0.00 0.00 0.00 0.02 0.01 0.00 0.00 0.00 0.00 0.00 0.00 0.00 0.00 0.00 0.00 0.00 0.00 0.00 0.00 0.01 0.01 0.02 0.01 0.01 0.00 0.00 0.00 0.00 0.00 0.00 0.02 0.01 0.00 0.00 0.00 0.00 0.00
0.00 0.01 0.01 0.00 0.00 0.00 0.00 0.00 0.00 0.01 0.01 0.00 0.00 0.00 0.00 0.00 0.00 0.00 0.00 0.00 0.00 0.00 0.00 0.00 0.01 0.03 0.04 0.04 0.01 0.04 0.01 0.00 0.00 0.00 0.00 0.00 0.00 0.00 0.01 0.00 0.00 0.00 0.00 0.00
0.00 0.00 0.00 0.00 0.00 0.01 0.01 0.01 0.00 0.02 0.01 0.00 0.00 0.02 0.00 0.00 0.00 0.00 0.00 0.00 0.00 0.00 0.00 0.00 0.02 0.01 0.02 0.02 0.00 0.00 0.00 0.00 0.00 0.00 0.00 0.00 0.01 0.00 0.00 0.00 0.00 0.00 0.00 0.00
0.00 0.00 0.00 0.01 0.01 0.02 0.02 0.00 0.00 0.00 0.01 0.01 0.03 0.10 0.06 0.01 0.00 0.00 0.00 0.00 0.00 0.00 0.00 0.01 0.00 0.00 0.00 0.00 0.00 0.00 0.00 0.00 0.00 0.00 0.00 0.00 0.00 0.00 0.00 0.00 0.00 0.00 0.00 0.00
0.00 0.00 0.00 0.01 0.01 0.05 0.06 0.01 0.00 0.00 0.00 0.02 0.04 0.07 0.08 0.03 0.00 0.00 0.00 0.00 0.00 0.00 0.00 0.00 0.00 0.00 0.00 0.00 0.00 0.00 0.00 0.00 0.00 0.00 0.00 0.00 0.00 0.00 0.00 0.00 0.00 0.00 0.00 0.00
0.00 0.00 0.00 0.00 0.00 0.02 0.03 0.02 0.00 0.00 0.00 0.01 0.02 0.03 0.05 0.01 0.01 0.00 0.00 0.00 0.00 0.00 0.00 0.00 0.00 0.00 0.00 0.00 0.00 0.00 0.00 0.00 0.00 0.00 0.00 0.00 0.00 0.00 0.00 0.00 0.00 0.00 0.00 0.00
0.00 0.00 0.00 0.00 0.00 0.02 0.01 0.00 0.00 0.00 0.01 0.02 0.07 0.04 0.05 0.05 0.01 0.01 0.01 0.01 0.00 0.00 0.00 0.00 0.00 0.00 0.00 0.00 0.00 0.00 0.00 0.00 0.00 0.00 0.00 0.00 0.00 0.00 0.00 0.00 0.00 0.00 0.00 0.00
0.00 0.00 0.00 0.04 0.04 0.04 0.05 0.00 0.00 0.01 0.01 0.03 0.07 0.03 0.04 0.07 0.02 0.01 0.01 0.01 0.01 0.00 0.00 0.00 0.00 0.00 0.00 0.00 0.00 0.00 0.00 0.00 0.00 0.00 0.00 0.00 0.00 0.00 0.00 0.00 0.00 0.00 0.00 0.00
0.00 0.00 0.01 0.06 0.07 0.05 0.05 0.00 0.00 0.03 0.04 0.01 0.02 0.03 0.03 0.04 0.03 0.02 0.02 0.01 0.00 0.00 0.00 0.00 0.00 0.00 0.00 0.00 0.00 0.00 0.00 0.00 0.00 0.00 0.00 0.00 0.00 0.00 0.00 0.00 0.00 0.00 0.00 0.00
0.00 0.00 0.00 0.03 0.05 0.05 0.07 0.06 0.04 0.02 0.03 0.02 0.01 0.02 0.02 0.01 0.01 0.01 0.01 0.00 0.00 0.00 0.00 0.00 0.00 0.00 0.00 0.00 0.00 0.00 0.00 0.00 0.00 0.00 0.00 0.00 0.00 0.00 0.00 0.00 0.00 0.00 0.00 0.00
0.00 0.00 0.00 0.05 0.06 0.06 0.09 0.04 0.02 0.01 0.01 0.00 0.00 0.02 0.01 0.00 0.00 0.00 0.00 0.00 0.00 0.00 0.00 0.00 0.00 0.00 0.00 0.00 0.00 0.00 0.00 0.00 0.00 0.00 0.00 0.00 0.00 0.00 0.00 0.00 0.00 0.00 0.00 0.00
0.00 0.00 0.00 0.01 0.01 0.08 0.07 0.01 0.00 0.01 0.00 0.00 0.00 0.01 0.01 0.01 0.01 0.00 0.00 0.01 0.01 0.00 0.00 0.00 0.00 0.00 0.00 0.00 0.00 0.00 0.00 0.00 0.00 0.00 0.00 0.00 0.00 0.00 0.00 0.00 0.00 0.00 0.00 0.00
0.00 0.00 0.00 0.00 0.00 0.03 0.06 0.04 0.02 0.01 0.00 0.00 0.00 0.00 0.01 0.01 0.01 0.01 0.01 0.02 0.01 0.00 0.00 0.00 0.00 0.00 0.00 0.00 0.00 0.00 0.00 0.00 0.00 0.00 0.00 0.00 0.00 0.00 0.00 0.00 0.00 0.00 0.00 0.00
0.00 0.00 0.00 0.00 0.03 0.04 0.02 0.01 0.00 0.00 0.00 0.00 0.00 0.00 0.01 0.02 0.03 0.02 0.02 0.02 0.01 0.00 0.00 0.00 0.00 0.00 0.00 0.00 0.00 0.00 0.00 0.00 0.00 0.00 0.00 0.00 0.00 0.00 0.00 0.00 0.00 0.00 0.00 0.00
0.00 0.00 0.00 0.01 0.02 0.03 0.01 0.00 0.00 0.00 0.00 0.00 0.00 0.00 0.00 0.01 0.01 0.00 0.00 0.01 0.00 0.00 0.00 0.00 0.00 0.00 0.00 0.00 0.00 0.00 0.00 0.00 0.00 0.00 0.00 0.00 0.00 0.00 0.00 0.00 0.00 0.00 0.00 0.00
0.00 0.00 0.00 0.00 0.00 0.01 0.00 0.00 0.00 0.00 0.00 0.00 0.00 0.00 0.00 0.00 0.00 0.00 0.00 0.00 0.00 0.00 0.00 0.00 0.00 0.00 0.00 0.00 0.00 0.00 0.00 0.00 0.00 0.00 0.00 0.00 0.00 0.00 0.00 0.00 0.00 0.00 0.00 0.00
0.00 0.00 0.00 0.00 0.00 0.00 0.00 0.00 0.00 0.00 0.00 0.00 0.00 0.00 0.00 0.00 0.00 0.00 0.00 0.00 0.00 0.00 0.00 0.00 0.00 0.00 0.00 0.00 0.00 0.00 0.00 0.00 0.00 0.00 0.00 0.00 0.00 0.00 0.00 0.00 0.00 0.00 0.00 0.00
MSLP
1003.25 1003.40 1002.39 1002.06 1001.84 1001.27 1000.64 1000.16 998.97 998.02 997.08 997.31 996.66 996.97 997.03 997.23 997.52 997.83 998.05 998.45 998.53 998.47 998.46 998.69 999.11 999.71 1001.90 1002.58 1003.07 1003.82 1005.00 1005.81 1007.08 1006.68 1007.88 1006.78 1007.66 1007.74 1008.15 1008.68 1008.51 1009.06 1009.60 1009.88
1004.39 1003.09 1002.72 1002.44 1002.19 1001.44 1000.79 1000.03 998.91 997.81 996.98 996.79 996.35 996.62 996.39 996.57 996.71 997.05 997.56 997.86 998.16 998.50 998.63 998.72 998.90 1000.11 1001.71 1001.92 1002.81 1004.12 1004.95 1006.21 1006.84 1006.55 1006.74 1007.54 1007.73 1007.90 1008.01 1008.69 1008.88 1009.27 1009.67 1009.89
1004.14 1003.55 1002.37 1002.35 1001.96 1001.15 1000.15 999.68 998.94 998.41 996.99 996.35 996.44 996.43 996.22 995.75 996.08 996.36 996.82 996.81 997.45 997.86 998.29 998.45 999.34 1000.10 1001.00 1001.88 1002.80 1003.95 1004.30 1005.11 1005.37 1005.90 1006.78 1007.52 1007.62 1008.04 1008.50 1008.78 1009.10 1009.64 1009.27 1009.72
1002.66 1002.17 1002.12 1002.19 1001.23 1000.87 1000.38 999.75 999.10 998.47 997.99 996.83 995.75 995.92 995.67 995.37 995.37 995.70 996.11 996.53 996.99 997.36 997.73 998.04 999.16 999.89 1001.00 1001.81 1002.54 1003.53 1004.14 1004.65 1005.06 1005.57 1006.32 1006.84 1007.33 1008.10 1008.56 1008.87 1009.38 1009.53 1009.21 1009.84
1002.12 1001.97 1002.20 1001.29 1001.31 1000.50 999.87 999.63 999.17 998.58 998.26 997.75 996.34 996.10 994.84 994.66 995.01 994.89 995.36 996.10 996.50 996.89 997.27 997.81 998.53 999.75 1000.68 1001.15 1002.19 1002.94 1004.19 1005.04 1005.16 1005.32 1005.97 1006.66 1007.61 1007.98 1008.48 1009.14 1009.74 1009.81 1009.66 1009.72
1002.28 1001.40 1001.60 1001.41 1001.31 1000.61 999.83 999.57 999.57 999.06 998.31 998.21 996.58 996.40 994.71 993.72 993.12 994.26 994.91 995.42 996.02 996.36 996.89 997.53 997.94 999.35 1000.37 1000.77 1002.08 1003.36 1003.88 1005.39 1005.87 1005.85 1006.26 1006.82 1007.59 1008.54 1008.74 1009.10 1009.74 1009.95 1009.87 1010.28
1002.12 1001.13 1000.67 1001.13 1001.45 1000.28 999.87 999.76 999.77 999.77 998.43 997.87 996.83 996.26 994.66 993.24 993.03 993.46 994.01 994.69 995.35 995.83 996.68 997.55 998.07 999.18 1000.18 1001.21 1002.45 1003.66 1004.98 1005.72 1006.03 1006.22 1006.18 1006.97 1008.11 1008.64 1008.55 1009.12 1009.77 1010.21 1010.64 1011.10
1002.38 1000.92 1000.62 1000.14 1000.46 999.55 999.68 999.74 999.15 999.65 999.30 998.07 996.90 995.64 994.16 992.58 992.73 993.15 993.60 994.12 994.81 995.44 996.35 997.53 997.90 998.92 1000.28 1001.42 1002.71 1003.76 1004.81 1005.59 1006.15 1006.55 1007.09 1007.67 1008.51 1008.65 1008.96 1009.58 1010.21 1010.86 1011.10 1011.63
1003.20 1001.64 1000.64 999.70 999.06 999.67 1000.04 999.63 999.12 999.19 998.81 998.30 996.83 995.59 994.77 993.12 993.04 993.36 992.87 993.62 994.44 995.21 996.26 997.63 998.10 998.76 1000.47 1001.70 1002.89 1003.68 1005.01 1006.09 1006.65 1007.51 1007.83 1008.53 1009.32 1009.63 1010.12 1010.66 1011.04 1011.36 1011.63 1011.95
1003.80 1002.74 1001.21 999.75 999.33 999.42 999.85 999.72 999.17 998.77 998.46 998.31 997.00 995.69 994.92 994.17 994.51 994.17 992.78 993.08 994.47 995.68 996.69 997.83 998.90 1000.01 1001.27 1002.33 1003.47 1004.61 1005.95 1006.80 1007.42 1008.22 1008.87 1009.55 1010.29 1010.80 1011.06 1011.52 1012.01 1012.15 1012.30 1012.44
1004.35 1003.65 1001.68 1000.54 999.23 998.42 999.21 999.28 999.09 998.76 998.64 998.75 997.76 996.42 995.62 995.38 995.29 995.63 995.19 994.73 995.63 996.95 998.16 999.25 1000.40 1001.57 1002.34 1003.41 1004.46 1005.37 1006.74 1007.72 1008.41 1009.07 1009.89 1010.47 1011.20 1011.62 1011.79 1012.29 1012.77 1013.08 1013.31 1013.63
1005.22 1004.66 1002.77 1000.40 998.46 998.58 998.73 998.93 998.62 998.74 999.21 998.63 998.77 998.12 997.42 996.83 996.01 996.10 997.14 996.82 997.56 998.41 999.66 1000.88 1001.64 1002.64 1003.47 1004.63 1005.71 1006.38 1007.42 1008.27 1009.31 1009.92 1010.29 1011.29 1011.91 1012.47 1012.90 1013.48 1013.84 1014.02 1014.39 1014.43
1005.29 1004.79 1003.38 1000.30 999.43 998.59 998.86 998.43 998.75 999.09 999.50 999.21 999.69 999.43 998.86 997.89 997.73 997.59 997.81 998.60 998.94 999.80 1000.70 1001.85 1002.75 1003.65 1004.75 1005.85 1006.57 1007.42 1008.44 1009.33 1010.26 1010.76 1011.21 1012.00 1012.98 1013.64 1014.06 1014.40 1014.72 1014.79 1014.80 1014.77
1005.34 1005.10 1004.02 1002.48 1000.80 1000.39 999.13 997.83 997.78 998.49 999.90 999.99 1000.68 1000.57 1000.27 999.80 999.20 999.03 999.33 999.77 1000.28 1000.97 1001.74 1002.85 1004.19 1005.04 1006.13 1007.12 1007.57 1008.40 1009.47 1010.42 1011.11 1011.28 1012.32 1013.22 1014.05 1014.45 1014.75 1015.00 1015.16 1015.29 1015.43 1015.28
1005.74 1005.03 1003.81 1001.76 1000.30 999.53 999.05 998.14 997.60 997.73 998.94 1000.46 1001.08 1001.31 1001.45 1001.09 1000.59 999.69 1000.19 1000.84 1001.54 1002.48 1003.32 1004.35 1005.33 1006.47 1007.24 1007.93 1008.64 1009.49 1010.40 1011.15 1011.67 1012.58 1013.51 1014.23 1014.60 1014.92 1015.36 1015.75 1015.95 1016.07 1016.03 1016.09
1005.65 1004.76 1003.23 1001.04 999.53 998.51 998.19 997.35 997.35 996.92 997.91 999.87 1000.85 1001.38 1001.62 1001.76 1001.44 1000.72 1001.25 1002.00 1003.05 1004.07 1005.05 1005.75 1006.61 1007.39 1008.43 1009.20 1009.82 1010.11 1011.06 1011.95 1012.73 1013.59 1014.28 1014.87 1015.35 1015.72 1016.21 1016.40 1016.59 1016.69 1016.72 1016.69
1005.05 1004.34 1002.92 1000.12 998.43 998.41 997.74 996.76 996.78 997.70 998.24 999.36 1001.33 1001.63 1001.45 1001.72 1002.29 1002.04 1002.43 1003.31 1004.45 1005.61 1006.53 1007.22 1007.92 1008.80 1009.66 1010.29 1010.42 1010.92 1011.91 1012.81 1013.62 1014.37 1015.05 1015.54 1015.96 1016.52 1016.93 1017.12 1017.26 1017.34 1017.39 1017.28
1003.68 1003.84 1002.64 1000.30 998.54 997.48 995.82 995.63 996.40 998.49 999.66 1001.10 1001.55 1001.62 1002.34 1002.07 1003.64 1004.12 1004.59 1004.53 1006.00 1006.88 1007.86 1008.65 1009.35 1010.12 1010.87 1011.21 1011.33 1012.08 1013.14 1014.05 1014.74 1015.37 1015.92 1016.36 1016.83 1017.37 1017.73 1017.76 1017.93 1017.87 1017.93 1017.91
1002.88 1003.60 1002.14 1000.14 998.74 998.25 997.95 997.98 998.20 998.79 1001.58 1001.90 1002.52 1002.26 1003.46 1003.80 1004.53 1007.04 1007.04 1006.95 1007.64 1007.98 1009.19 1009.82 1010.58 1011.22 1011.77 1012.24 1012.92 1013.59 1014.54 1015.32 1015.92 1016.49 1016.95 1017.40 1017.81 1018.25 1018.34 1018.49 1018.82 1018.65 1018.52 1018.43
1002.89 1002.93 1002.38 1000.37 999.19 999.13 999.43 998.62 998.68 999.89 1002.61 1003.28 1003.24 1003.84 1003.80 1004.25 1006.58 1009.23 1009.03 1008.60 1009.17 1009.83 1010.53 1010.82 1011.66 1012.38 1013.06 1014.00 1014.40 1014.95 1015.89 1016.59 1017.22 1017.68 1017.92 1018.33 1018.56 1018.64 1018.90 1019.08 1019.24 1019.18 1019.16 1019.26
1002.76 1003.00 1002.59 1001.35 1000.48 1000.43 999.36 998.65 998.99 999.92 1004.02 1004.57 1004.92 1004.80 1005.51 1006.14 1008.27 1009.52 1009.91 1010.03 1010.35 1011.19 1011.61 1011.97 1013.00 1014.08 1014.97 1015.37 1015.78 1016.48 1017.11 1017.78 1018.14 1018.40 1018.78 1018.96 1019.16 1019.39 1019.58 1019.83 1020.03 1020.02 1019.92 1020.10
1004.49 1003.81 1003.26 1002.43 1000.54 1000.85 1000.42 1000.35 1000.54 1002.31 1004.15 1005.61 1006.44 1007.12 1007.47 1008.31 1009.75 1010.10 1011.09 1011.37 1011.84 1012.09 1012.77 1013.54 1014.51 1015.62 1016.29 1016.71 1017.09 1017.69 1018.14 1018.41 1018.77 1019.26 1019.45 1019.63 1019.99 1020.37 1020.70 1020.92 1021.09 1021.01 1020.87 1020.95
1005.42 1005.83 1004.82 1003.97 1003.32 1001.91 1000.86 1001.36 1002.31 1003.34 1004.64 1006.76 1007.65 1008.73 1008.11 1009.66 1010.71 1011.34 1012.15 1012.69 1013.24 1013.68 1014.31 1015.19 1015.87 1016.85 1017.61 1018.13 1018.35 1018.45 1018.85 1019.15 1019.47 1019.83 1020.13 1020.46 1020.97 1021.35 1021.67 1021.90 1021.96 1021.89 1021.84 1021.74
1007.33 1006.52 1005.68 1004.22 1003.80 1003.54 1003.94 1004.64 1005.28 1006.11 1007.38 1008.44 1009.03 1010.14 1010.24 1010.57 1011.81 1012.44 1013.16 1013.65 1014.34 1014.99 1015.58 1016.30 1017.10 1017.87 1018.49 1018.98 1019.19 1019.32 1019.62 1019.84 1020.07 1020.21 1020.57 1021.17 1021.76 1022.21 1022.37 1022.50 1022.96 1023.06 1022.92 1022.77
1009.77 1008.66 1007.46 1006.27 1005.69 1005.82 1006.58 1006.76 1007.35 1008.55 1009.47 1010.12 1010.97 1011.40 1011.93 1012.28 1013.20 1013.44 1013.97 1014.66 1015.20 1015.87 1016.64 1017.24 1017.84 1018.46 1019.13 1019.62 1020.01 1020.25 1020.30 1020.35 1020.47 1020.70 1021.09 1021.69 1022.29 1022.85 1023.23 1023.48 1023.72 1023.81 1023.99 1023.80
1011.20 1010.31 1009.42 1008.70 1007.83 1007.39 1008.63 1008.99 1009.20 1009.95 1010.85 1011.32 1011.93 1013.05 1013.39 1014.03 1014.04 1014.42 1014.95 1015.53 1016.03 1016.79 1017.57 1018.09 1018.44 1018.76 1019.52 1020.11 1020.54 1020.73 1020.72 1020.73 1021.02 1021.19 1021.39 1021.91 1022.56 1023.04 1023.41 1023.86 1024.24 1024.35 1024.24 1023.91
Thickness
5541 5534 5551 5583 5601 5624 5635 5637 5650 5675 5702 5694 5705 5711 5720 5737 5739 5743 5753 5756 5763 5776 5790 5796 5802 5805 5783 5788 5787 5787 5776 5771 5763 5743 5756 5770 5772 5774 5775 5773 5774 5771 5767 5763
5511 5520 5549 5575 5582 5599 5610 5622 5635 5668 5688 5692 5702 5700 5723 5728 5739 5747 5747 5758 5764 5771 5779 5788 5796 5789 5779 5788 5786 5779 5774 5766 5757 5762 5767 5766 5766 5768 5771 5769 5767 5763 5760 5756
5500 5519 5550 5552 5559 5577 5596 5608 5627 5640 5676 5692 5691 5685 5700 5729 5739 5745 5751 5762 5769 5771 5777 5785 5783 5779 5783 5779 5774 5770 5773 5770 5766 5765 5763 5763 5763 5763 5762 5760 5758 5756 5758 5752
5521 5537 5541 5541 5553 5569 5568 5607 5627 5637 5643 5641 5692 5654 5687 5715 5728 5737 5749 5753 5760 5768 5778 5784 5779 5777 5773 5771 5773 5768 5768 5768 5765 5766 5759 5760 5758 5753 5754 5753 5751 5751 5752 5745
5519 5529 5521 5541 5549 5570 5576 5606 5618 5634 5633 5641 5662 5665 5689 5713 5708 5734 5745 5748 5758 5765 5773 5779 5779 5774 5771 5776 5773 5770 5765 5758 5761 5761 5759 5758 5752 5750 5749 5747 5742 5741 5741 5739
5527 5543 5533 5538 5543 5561 5587 5593 5604 5620 5630 5608 5649 5655 5675 5698 5728 5732 5743 5751 5755 5764 5770 5774 5781 5775 5769 5774 5769 5762 5764 5756 5750 5751 5753 5753 5748 5740 5738 5739 5735 5734 5733 5726
5532 5538 5545 5541 5532 5558 5568 5567 5573 5575 5593 5602 5653 5652 5667 5711 5728 5737 5744 5750 5755 5763 5765 5764 5772 5770 5768 5764 5760 5755 5750 5742 5744 5748 5751 5748 5738 5735 5736 5735 5731 5726 5719 5714
5524 5536 5541 5551 5540 5560 5561 5565 5570 5557 5565 5609 5652 5639 5673 5725 5737 5740 5748 5751 5752 5757 5762 5757 5767 5766 5762 5761 5753 5748 5743 5741 5739 5740 5740 5736 5729 5731 5729 5726 5722 5714 5709 5702
5520 5528 5544 5557 5570 5563 5554 5554 5586 5590 5604 5609 5633 5667 5692 5718 5728 5724 5743 5751 5754 5755 5757 5749 5760 5763 5757 5751 5743 5745 5740 5733 5731 5726 5726 5722 5717 5716 5715 5710 5707 5701 5696 5694
5521 5525 5540 5555 5561 5563 5556 5575 5571 5586 5591 5591 5629 5652 5655 5695 5698 5708 5730 5754 5751 5748 5746 5744 5748 5746 5745 5742 5737 5734 5726 5720 5719 5715 5711 5707 5703 5701 5699 5694 5689 5686 5685 5683
5518 5523 5543 5547 5556 5567 5559 5565 5579 5592 5591 5589 5610 5642 5688 5695 5693 5694 5709 5727 5732 5727 5728 5729 5730 5727 5728 5726 5724 5722 5712 5709 5705 5702 5698 5696 5692 5689 5686 5681 5675 5671 5668 5663
5501 5498 5515 5549 5571 5571 5568 5567 5582 5569 5584 5609 5612 5629 5652 5677 5690 5697 5696 5708 5713 5717 5716 5713 5713 5713 5711 5708 5707 5707 5702 5699 5694 5691 5690 5683 5678 5672 5669 5664 5660 5658 5653 5651
5499 5506 5511 5551 5559 5568 5558 5577 5581 5582 5587 5596 5597 5613 5640 5666 5673 5686 5691 5693 5699 5702 5704 5702 5700 5699 5696 5693 5694 5690 5687 5685 5679 5676 5673 5668 5662 5657 5655 5652 5648 5647 5644 5641
5502 5499 5512 5523 5540 5537 5545 5579 5590 5586 5567 5591 5591 5609 5622 5642 5660 5672 5677 5681 5683 5687 5690 5688 5684 5684 5681 5679 5679 5677 5673 5669 5666 5666 5659 5653 5649 5647 5643 5641 5639 5637 5633 5632
5493 5507 5516 5538 5550 5556 5552 5569 5587 5590 5587 5573 5589 5605 5609 5626 5645 5663 5668 5669 5669 5668 5672 5672 5671 5667 5667 5667 5666 5664 5661 5658 5656 5651 5645 5640 5639 5636 5633 5629 5627 5624 5622 5619
5486 5509 5520 5533 5552 5563 5563 5581 5589 5599 5602 5590 5598 5601 5609 5620 5635 5648 5654 5655 5653 5652 5652 5655 5656 5656 5653 5652 5653 5656 5651 5646 5643 5638 5633 5630 5627 5625 5620 5618 5615 5612 5609 5606
5498 5510 5527 5558 5572 5565 5564 5584 5595 5594 5603 5603 5581 5600 5606 5615 5621 5633 5640 5642 5638 5635 5634 5636 5640 5640 5639 5640 5645 5644 5639 5635 5631 5627 5624 5620 5617 5612 5608 5606 5603 5601 5597 5595
5517 5511 5532 5560 5574 5560 5587 5607 5605 5584 5588 5586 5584 5599 5605 5605 5606 5612 5620 5629 5623 5621 5619 5621 5624 5626 5627 5628 5632 5630 5625 5621 5618 5615 5612 5608 5604 5599 5595 5593 5591 5591 5588 5584
5528 5513 5545 5562 5563 5577 5571 5580 5584 5591 5575 5582 5580 5585 5591 5598 5600 5586 5596 5606 5607 5610 5608 5611 5613 5615 5615 5617 5616 5615 5610 5607 5604 5601 5597 5593 5589 5585 5584 5581 5577 5577 5577 5575
5536 5533 5545 5566 5579 5571 5567 5587 5594 5591 5566 5573 5579 5580 5593 5601 5582 5563 5579 5591 5593 5594 5597 5603 5603 5603 5603 5600 5601 5600 5595 5591 5587 5585 5583 5579 5578 5577 5574 5571 5569 5568 5566 5561
5543 5542 5551 5560 5575 5571 5586 5599 5603 5593 5568 5568 5571 5574 5583 5579 5572 5569 5575 5580 5583 5584 5587 5591 5589 5585 5583 5585 5586 5583 5580 5575 5574 5573 5571 5569 5567 5566 5563 5561 5557 5555 5553 5547
5533 5541 5549 5561 5568 5571 5587 5594 5597 5581 5573 5562 5560 5562 5563 5565 5562 5566 5564 5567 5572 5577 5579 5579 5576 5571 5570 5570 5571 5568 5565 5566 5564 5561 5560 5560 5556 5553 5550 5546 5542 5541 5538 5533
5543 5529 5543 5552 5556 5572 5586 5585 5584 5578 5567 5555 5553 5550 5562 5555 5553 5556 5555 5558 5560 5563 5563 5562 5561 5557 5556 5555 5556 5557 5556 5556 5554 5552 5550 5548 5544 5541 5537 5533 5530 5527 5523 5520
5520 5525 5539 5552 5559 5566 5559 5555 5554 5553 5547 5542 5543 5539 5546 5550 5547 5549 5551 5553 5553 5553 5553 5552 5550 5547 5546 5546 5547 5547 5546 5545 5545 5543 5544 5538 5532 5528 5525 5522 5514 5509 5507 5504
5503 5506 5525 5550 5551 5552 5543 5543 5538 5529 5529 5527 5530 5533 5536 5539 5539 5545 5548 5547 5548 5547 5545 5544 5543 5541 5538 5537 5536 5536 5537 5538 5537 5536 5533 5530 5523 5517 5511 5506 5500 5497 5491 5487
5497 5507 5519 5532 5537 5546 5531 5530 5529 5523 5521 5524 5526 5522 5525 5527 5536 5538 5538 5539 5541 5539 5536 5536 5536 5538 5535 5532 5530 5530 5532 5533 5530 5528 5527 5522 5516 5509 5503 5497 5489 5484 5480 5478